Tracking 28126 objects as of 1-Oct-2023
HD Live streaming from Space Station
objects crossing your sky now

NOAA 5

Track NOAA 5 now!
10-day predictions
NOAA 5 is classified as:


NORAD ID: 9057
Int'l Code: 1976-077A
Perigee: 1,515.2 km
Apogee: 1,531.0 km
Inclination: 102.2 °
Period: 116.3 minutes
Semi major axis: 7894 km
RCS: 1.7201 m2 (large)
Launch date: July 29, 1976
Source: United States (US)
Launch site: AIR FORCE WESTERN TEST RANGE (AFWTR)
Your satellite tracking list
Your tracking list is empty




NASA's NSSDC Master Catalog

Two Line Element Set (TLE):
1  9057U 76077A   23273.78882531 -.00000036  00000-0  70652-4 0  9991
2  9057 102.1674 243.0765 0010022 355.4140  70.1581 12.37789395132156
Source of the keplerian elements: AFSPC